Easterwood Field College Station US
ICAO: KCLL
IATA: CLL
Category: Medium
Scheduled Services: Yes

Elevation: 320 ft
TransAlt. 18000 ft.

Airport Communications:
ATIS:126.85
HOUSTON CNTR:120.4
CTAF:118.5
GND:128.7
MONTGOMERY CO RDO:122.2
TWR:118.5
UNICOM:122.95

KCLL Zoom In..

If you have problems with the map follow the link
https://www.worldairports.se/pages/airport.php?
ICAO=KCLL

Runways:

(A) RW 04 length 5150 ft width 150 ft
---- / hdg 44

(B) RW 10 length 5158 ft width 150 ft
---- / hdg 103

(C) RW 16 length 7000 ft width 146 ft
---- / hdg 163

(D) RW 22 length 5150 ft width 150 ft
---- / hdg 224

(E) RW 28 length 5158 ft width 150 ft
---- / hdg 283

(F) RW 34 length 7000 ft width 146 ft
ILS 111.70 / hdg 343

Location; KCLL
Day. 19 / Time. 13.53 Zulu
* Altimeter: 30.22
* Temperature: 06° c. 42.8°f.
* Wind from: 010° Speed 08 kn.
Dewpoint: 05° c.
Visibility: 5 Statute Miles.
Clouds: Overcast 800 ft.
Conditions: Light Rain.Conditions: Mist.

KCLL 191353Z 01008KT 5SM -RA BR OVC008 06/05 A3022 RMK AO2 RAE11B23 CIG 006V012 SLP234 P0001 T00560050


Wind From 010°
Speed 08 kn.

 
 
jpsmedia.com for Web Design worldairports.se 2018   terms of use